EW5171 Weather Reports


time (UTC)temp
C
wind
direction
speed
KPH
gust
KPH
rain 1hr
cm
rain 24hr
cm
rain mn
cm
humidity
%
barometer
mb
20260503040005 8 296 0.0 1.6 0.00 0.00 0.00 93 1011.2
20260503035508 8 296 0.0 1.6 0.00 0.00 0.00 93 1011.1
20260503035003 8 296 0.0 1.6 0.00 0.00 0.00 92 1011.2
20260503034507 9 296 0.0 1.6 0.00 0.00 0.00 92 1011.2
20260503034002 9 296 0.0 1.6 0.00 0.00 0.00 92 1011.1
20260503033600 9 296 0.0 1.6 0.00 0.00 0.00 92 1011.0
20260503033102 9 296 0.0 1.6 0.00 0.00 0.00 93 1010.9
20260503032559 10 296 0.0 1.6 0.00 0.00 0.00 93 1010.8
20260503032058 10 296 0.0 1.6 0.00 0.00 0.00 92 1010.8
20260503031557 10 296 0.0 3.2 0.00 0.00 0.00 93 1010.9
20260503031058 10 296 0.0 6.4 0.00 0.00 0.00 93 1010.9
20260503030558 10 285 0.0 6.4 0.00 0.00 0.00 93 1011.0
20260503030058 10 294 0.0 6.4 0.00 0.00 0.00 93 1010.9
20260503025555 10 294 0.0 6.4 0.00 0.00 0.00 93 1011.0
20260503025055 10 221 1.6 6.4 0.00 0.00 0.00 93 1011.0
20260503024555 10 272 0.0 9.7 0.00 0.00 0.00 93 1011.1
20260503024056 10 230 1.6 9.7 0.00 0.00 0.00 93 1011.1
20260503023555 10 244 0.0 6.4 0.00 0.00 0.00 93 1011.2
20260503023054 10 229 0.0 6.4 0.00 0.00 0.00 92 1011.3
20260503022553 10 211 1.6 6.4 0.00 0.00 0.00 92 1011.2
20260503022052 10 222 1.6 11.3 0.00 0.00 0.00 93 1011.2
20260503021551 10 193 3.2 11.3 0.00 0.00 0.00 93 1011.3
20260503021051 10 219 1.6 8.0 0.00 0.00 0.00 93 1011.3
20260503020552 10 278 1.6 8.0 0.00 0.00 0.00 93 1011.2
20260503020050 10 304 1.6 14.5 0.00 0.00 0.00 93 1011.2
20260503015551 10 277 3.2 14.5 0.00 0.00 0.00 93 1011.2
20260503015049 10 281 1.6 6.4 0.00 0.00 0.00 93 1011.2
20260503014558 10 254 0.0 4.8 0.00 0.00 0.00 93 1011.2
20260503014049 10 296 1.6 4.8 0.00 0.00 0.00 93 1011.1
20260503013549 10 261 0.0 6.4 0.00 0.00 0.00 93 1011.1
20260503013049 10 271 1.6 6.4 0.00 0.00 0.00 93 1011.2
20260503012550 10 182 1.6 6.4 0.00 0.00 0.00 92 1011.1
20260503012047 10 296 0.0 4.8 0.00 0.00 0.00 92 1011.0
20260503011546 10 291 0.0 4.8 0.00 0.00 0.00 92 1011.0
20260503011047 11 291 1.6 8.0 0.00 0.00 0.00 92 1011.0
20260503010546 10 237 1.6 8.0 0.00 0.00 0.00 92 1011.1
20260503010047 10 190 0.0 4.8 0.00 0.00 0.00 92 1011.1
20260503005546 10 280 0.0 3.2 0.00 0.00 0.00 92 1011.0
20260503005048 10 225 0.0 3.2 0.00 0.00 0.00 91 1010.9
20260503004546 10 225 0.0 3.2 0.00 0.00 0.00 91 1010.9
20260503004045 11 225 0.0 3.2 0.00 0.00 0.00 91 1010.9
20260503003544 11 225 0.0 3.2 0.00 0.00 0.00 91 1011.0
20260503003043 11 176 0.0 3.2 0.00 0.00 0.00 91 1011.0
20260503002544 11 249 0.0 3.2 0.00 0.00 0.00 91 1011.1
20260503002043 11 249 0.0 3.2 0.00 0.00 0.00 90 1011.0
20260503001542 10 249 0.0 3.2 0.00 0.00 0.00 90 1011.0
20260503001042 10 249 0.0 1.6 0.00 0.00 0.00 89 1011.0
20260503000540 10 249 0.0 3.2 0.00 0.00 0.00 89 1011.1
20260503000040 10 249 0.0 3.2 0.00 0.00 0.00 88 1011.1
20260502235539 10 249 0.0 1.6 0.00 0.00 0.00 87 1011.1
20260502235038 11 249 0.0 1.6 0.00 0.00 0.00 87 1011.2
20260502234538 11 249 0.0 1.6 0.00 0.00 0.00 86 1011.2
20260502234038 11 249 0.0 1.6 0.00 0.00 0.00 85 1011.3
20260502233536 11 249 0.0 1.6 0.00 0.00 0.00 84 1011.2
20260502233037 11 249 0.0 0.0 0.00 0.00 0.00 83 1011.2
20260502232533 11 249 0.0 1.6 0.00 0.00 0.00 82 1011.2
20260502232032 11 249 0.0 1.6 0.00 0.00 0.00 82 1011.2
20260502231533 11 249 0.0 1.6 0.00 0.00 0.00 81 1011.4
20260502231032 12 249 0.0 0.0 0.00 0.00 0.00 80 1011.4
20260502230529 12 249 0.0 0.0 0.00 0.00 0.00 78 1011.4
20260502230027 12 249 0.0 0.0 0.00 0.00 0.00 77 1011.4
20260502225526 12 249 0.0 1.6 0.00 0.00 0.00 76 1011.4
20260502225024 12 249 0.0 1.6 0.00 0.00 0.00 76 1011.4
20260502224524 13 249 0.0 1.6 0.00 0.00 0.00 76 1011.5
20260502224023 13 249 0.0 1.6 0.00 0.00 0.00 75 1011.5
20260502223524 13 249 0.0 1.6 0.00 0.00 0.00 74 1011.6
20260502223021 13 249 0.0 1.6 0.00 0.00 0.00 72 1011.5
20260502222520 13 249 0.0 0.0 0.00 0.00 0.00 72 1011.5
20260502222018 14 249 0.0 1.6 0.00 0.00 0.00 71 1011.4
20260502221516 14 249 0.0 3.2 0.00 0.00 0.00 71 1011.5
20260502221015 14 249 0.0 3.2 0.00 0.00 0.00 70 1011.5
20260502220515 15 249 0.0 0.0 0.00 0.00 0.00 70 1011.4
20260502220013 15 249 0.0 1.6 0.00 0.00 0.00 69 1011.5
20260502215512 15 249 0.0 6.4 0.00 0.00 0.00 69 1011.4
20260502215012 15 249 0.0 6.4 0.00 0.00 0.00 68 1011.5
20260502214515 15 184 0.0 3.2 0.00 0.00 0.00 67 1011.6
20260502214012 15 184 0.0 4.8 0.00 0.00 0.00 66 1011.7
20260502213611 15 239 0.0 4.8 0.00 0.00 0.00 66 1011.7
20260502213012 15 291 0.0 1.6 0.00 0.00 0.00 65 1011.7
20260502212511 16 280 0.0 1.6 0.00 0.00 0.00 64 1011.7
20260502212017 16 280 0.0 1.6 0.00 0.00 0.00 64 1011.8
20260502211523 16 280 0.0 1.6 0.00 0.00 0.00 64 1011.8
20260502211009 16 280 0.0 1.6 0.00 0.00 0.00 63 1011.7
20260502210510 16 280 0.0 1.6 0.00 0.00 0.00 63 1011.7
20260502210009 16 280 0.0 3.2 0.00 0.00 0.00 63 1011.7
20260502205510 16 280 0.0 3.2 0.00 0.00 0.00 62 1011.7
20260502205010 16 280 0.0 3.2 0.00 0.00 0.00 61 1011.7
20260502204510 16 280 0.0 3.2 0.00 0.00 0.00 61 1011.7
20260502204012 16 280 0.0 3.2 0.00 0.00 0.00 61 1011.8
20260502203511 16 280 0.0 0.0 0.00 0.00 0.00 62 1011.7
20260502203009 16 280 0.0 1.6 0.00 0.00 0.00 62 1011.7
20260502202509 16 280 0.0 1.6 0.00 0.00 0.00 62 1011.7
20260502202009 16 280 0.0 0.0 0.00 0.00 0.00 62 1011.8
20260502201507 16 280 0.0 1.6 0.00 0.00 0.00 61 1011.8
20260502201009 16 280 0.0 3.2 0.00 0.00 0.00 60 1011.8
20260502200508 17 280 0.0 3.2 0.00 0.00 0.00 59 1011.8
20260502200008 17 280 0.0 6.4 0.00 0.00 0.00 59 1011.9
20260502195511 17 202 0.0 6.4 0.00 0.00 0.00 59 1012.0
20260502195007 17 212 0.0 1.6 0.00 0.00 0.00 59 1011.9
20260502194507 17 212 0.0 1.6 0.00 0.00 0.00 58 1012.1
20260502194012 17 212 0.0 3.2 0.00 0.00 0.00 56 1012.0
20260502193507 17 212 0.0 8.0 0.00 0.00 0.00 55 1012.1
20260502193007 18 212 1.6 8.0 0.00 0.00 0.00 53 1012.2
20260502192509 18 294 1.6 6.4 0.00 0.00 0.00 53 1012.4
20260502192009 18 232 1.6 6.4 0.00 0.00 0.00 50 1012.3
20260502191514 18 238 1.6 8.0 0.00 0.00 0.00 47 1012.3
20260502191011 18 311 1.6 8.0 0.00 0.00 0.00 45 1012.2
20260502190506 18 196 1.6 8.0 0.00 0.00 0.00 44 1012.2
20260502190011 18 274 1.6 6.4 0.00 0.00 0.00 44 1012.2
20260502185507 18 236 1.6 4.8 0.00 0.00 0.00 44 1012.2
20260502185006 19 229 0.0 6.4 0.00 0.00 0.00 43 1012.1
20260502184505 19 238 0.0 6.4 0.00 0.00 0.00 43 1012.0
20260502184005 19 231 1.6 6.4 0.00 0.00 0.00 42 1012.0
20260502183505 19 213 1.6 6.4 0.00 0.00 0.00 41 1011.9
20260502183005 20 268 0.0 8.0 0.00 0.00 0.00 41 1012.0
20260502182505 20 232 1.6 8.0 0.00 0.00 0.00 40 1011.9
20260502182004 20 221 1.6 8.0 0.00 0.00 0.00 40 1011.9
20260502181504 20 221 1.6 8.0 0.00 0.00 0.00 39 1011.9
20260502181008 20 209 1.6 8.0 0.00 0.00 0.00 38 1011.9
20260502180503 20 229 1.6 4.8 0.00 0.00 0.00 39 1011.8
20260502170502 21 206 6.4 17.7 0.00 0.00 0.00 42 1011.7
20260502164102 20 181 8.0 17.7 0.00 0.00 0.00 44 1011.9
20260502163557 21 211 8.0 20.9 0.00 0.00 0.00 44 1011.9
20260502163057 21 166 6.4 20.9 0.00 0.00 0.00 45 1012.0
20260502162557 21 191 8.0 22.5 0.00 0.00 0.00 45 1012.0
20260502162056 21 208 8.0 27.4 0.00 0.00 0.00 44 1012.1
20260502161559 21 227 8.0 27.4 0.00 0.00 0.00 44 1012.1
20260502161056 21 164 9.7 24.1 0.00 0.00 0.00 43 1012.1
20260502160555 22 197 11.3 29.0 0.00 0.00 0.00 43 1012.2
20260502152054 22 198 11.3 24.1 0.00 0.00 0.00 42 1012.6
20260502151558 22 158 9.7 30.6 0.00 0.00 0.00 42 1012.7
20260502151050 22 180 11.3 30.6 0.00 0.00 0.00 42 1012.7
20260502150547 22 228 6.4 19.3 0.00 0.00 0.00 43 1012.8
20260502130533 21 124 9.7 19.3 0.00 0.00 0.00 45 1014.2
20260502123530 21 195 11.3 24.1 0.00 0.00 0.00 47 1014.6
20260502123029 21 212 9.7 27.4 0.00 0.00 0.00 47 1014.5
20260502122529 21 197 12.9 27.4 0.00 0.00 0.00 47 1014.7
20260502122029 21 232 11.3 27.4 0.00 0.00 0.00 46 1014.6
20260502121528 22 190 8.0 17.7 0.00 0.00 0.00 49 1014.7
20260502121027 21 188 4.8 16.1 0.00 0.00 0.00 50 1014.8
20260502120524 21 198 6.4 19.3 0.00 0.00 0.00 51 1014.9
20260502115525 21 170 9.7 16.1 0.00 0.00 0.00 52 1015.0
20260502115021 21 198 6.4 14.5 0.00 0.00 0.00 52 1015.2
20260502114520 20 173 6.4 16.1 0.00 0.00 0.00 53 1015.2
20260502114018 20 161 6.4 19.3 0.00 0.00 0.00 54 1015.3
20260502113519 20 229 12.9 19.3 0.00 0.00 0.00 54 1015.2
20260502113018 20 159 6.4 14.5 0.00 0.00 0.00 59 1015.3
20260502112514 19 203 4.8 16.1 0.00 0.00 0.00 61 1015.4
20260502112013 19 160 4.8 16.1 0.00 0.00 0.00 61 1015.4
20260502111513 19 194 6.4 16.1 0.00 0.00 0.00 61 1015.5
20260502111013 19 190 4.8 14.5 0.00 0.00 0.00 61 1015.5
20260502110512 18 192 4.8 14.5 0.00 0.00 0.00 62 1015.6
20260502110011 18 175 8.0 17.7 0.00 0.00 0.00 62 1015.7
20260502105512 18 155 6.4 17.7 0.00 0.00 0.00 63 1015.7
20260502105011 18 215 6.4 16.1 0.00 0.00 0.00 62 1015.8
20260502104510 18 192 6.4 19.3 0.00 0.00 0.00 62 1015.7
20260502104009 18 160 6.4 19.3 0.00 0.00 0.00 62 1015.8
20260502103508 18 171 4.8 16.1 0.00 0.00 0.00 64 1015.8
20260502103008 18 177 6.4 17.7 0.00 0.00 0.00 65 1015.9
20260502102507 18 130 6.4 17.7 0.00 0.00 0.00 65 1015.8
20260502102006 18 169 4.8 14.5 0.00 0.00 0.00 65 1015.9
20260502101509 18 184 8.0 14.5 0.00 0.00 0.00 65 1015.9
20260502101005 17 169 4.8 16.1 0.00 0.00 0.00 66 1016.0
20260502100503 17 214 6.4 17.7 0.00 0.00 0.00 66 1016.0
20260502091051 18 195 6.4 14.5 0.00 0.00 0.00 61 1016.5
20260502090551 17 274 6.4 12.9 0.00 0.00 0.00 64 1016.5
20260502071520 16 187 6.4 14.5 0.00 0.00 0.00 68 1017.2
20260502071017 15 230 3.2 12.9 0.00 0.00 0.00 69 1017.2
20260502070516 15 253 4.8 12.9 0.00 0.00 0.00 69 1017.3
20260502070022 15 217 4.8 16.1 0.00 0.00 0.00 69 1017.3
20260502065514 15 200 8.0 16.1 0.00 0.00 0.00 69 1017.4
20260502065017 15 267 4.8 17.7 0.00 0.00 0.00 69 1017.4
20260502064525 15 214 1.6 16.1 0.00 0.00 0.00 70 1017.3
20260502064009 15 195 3.2 11.3 0.00 0.00 0.00 70 1017.4
20260502063510 14 199 4.8 16.1 0.00 0.00 0.00 70 1017.4
20260502063010 14 209 4.8 16.1 0.00 0.00 0.00 71 1017.5
20260502062506 14 175 8.0 14.5 0.00 0.00 0.00 70 1017.5
20260502062009 14 178 8.0 12.9 0.00 0.00 0.00 70 1017.5
20260502061503 14 209 4.8 11.3 0.00 0.00 0.00 71 1017.6
20260502061100 14 215 4.8 16.1 0.00 0.00 0.00 71 1017.6
20260502060559 13 212 6.4 16.1 0.00 0.00 0.00 71 1017.7
20260502060111 13 247 6.4 12.9 0.00 0.00 0.00 71 1017.7
20260502055556 13 237 6.4 16.1 0.00 0.00 0.00 72 1017.8
20260502055055 13 169 4.8 16.1 0.00 0.00 0.00 72 1017.7
20260502054553 13 219 4.8 16.1 0.00 0.00 0.00 73 1017.7
20260502054052 13 182 3.2 11.3 0.00 0.00 0.00 74 1017.8
20260502053551 13 150 4.8 11.3 0.00 0.00 0.00 76 1017.8
20260502053058 12 232 1.6 8.0 0.00 0.00 0.00 77 1017.8
20260502052548 12 181 1.6 8.0 0.00 0.00 0.00 78 1017.9
20260502052047 12 192 3.2 11.3 0.00 0.00 0.00 79 1017.9
20260502051556 12 209 4.8 8.0 0.00 0.00 0.00 80 1017.9
20260502051042 11 244 4.8 8.0 0.00 0.00 0.00 82 1017.9
20260502050544 11 223 1.6 6.4 0.00 0.00 0.00 84 1018.0
20260502050041 10 208 1.6 6.4 0.00 0.00 0.00 86 1018.1
20260502045542 10 221 1.6 6.4 0.00 0.00 0.00 87 1018.1
20260502045039 10 188 1.6 4.8 0.00 0.00 0.00 88 1018.1
20260502044541 9 236 0.0 3.2 0.00 0.00 0.00 88 1018.2
20260502044039 8 211 0.0 3.2 0.00 0.00 0.00 88 1018.2
20260502043536 8 211 0.0 3.2 0.00 0.00 0.00 88 1018.2
20260502043036 8 196 0.0 4.8 0.00 0.00 0.00 88 1018.2
20260502042537 8 236 0.0 1.6 0.00 0.00 0.00 87 1018.3
20260502042035 8 236 0.0 1.6 0.00 0.00 0.00 87 1018.3
20260502041537 8 288 0.0 3.2 0.00 0.00 0.00 86 1018.4
20260502041032 8 288 0.0 3.2 0.00 0.00 0.00 86 1018.4
20260502040534 8 288 0.0 1.6 0.00 0.00 0.00 86 1018.5